GW0458 Weather Reports


time (UTC)temp
C
wind
direction
speed
KPH
gust
KPH
rain 1hr
cm
rain 24hr
cm
rain mn
cm
humidity
%
barometer
mb
20240614131056 9 208 4.8 4.8 0.00 0.00 0.00 80 1029.0
20240614124054 8 174 0.0 0.0 0.00 0.00 0.00 82 1028.8
20240614121053 8 177 1.6 1.6 0.00 0.00 0.00 83 1028.3
20240614114053 8 170 1.6 1.6 0.00 0.00 0.00 82 1028.4
20240614111052 8 166 1.6 1.6 0.00 0.00 0.00 81 1028.5
20240614104051 8 170 1.6 1.6 0.00 0.00 0.00 84 1028.1
20240614101050 9 172 0.0 0.0 0.00 0.00 0.00 80 1028.1
20240614094049 10 174 0.0 1.6 0.00 0.00 0.00 78 1028.1
20240614091049 9 170 0.0 0.0 0.00 0.00 0.00 82 1028.0
20240614084049 10 154 1.6 3.2 0.00 0.00 0.00 80 1027.5
20240614081047 10 173 0.0 0.0 0.00 0.00 0.00 77 1027.4
20240614074046 11 174 0.0 0.0 0.00 0.00 0.00 76 1027.2
20240614071045 12 173 0.0 0.0 0.00 0.00 0.00 70 1026.9
20240614064043 12 171 0.0 0.0 0.00 0.00 0.00 71 1026.7
20240614061041 12 171 0.0 0.0 0.00 0.00 0.00 68 1026.3
20240614054041 13 173 0.0 0.0 0.00 0.00 0.00 66 1025.8
20240614051041 15 174 0.0 0.0 0.00 0.00 0.00 65 1025.5
20240614044041 15 170 0.0 0.0 0.00 0.00 0.00 62 1025.2
20240614041041 16 174 0.0 0.0 0.00 0.00 0.00 62 1024.8
20240614034040 17 170 0.0 0.0 0.00 0.00 0.00 63 1024.6
20240614031040 18 173 0.0 0.0 0.00 0.00 0.00 62 1024.8
20240614024038 18 173 0.0 0.0 0.00 0.00 0.00 60 1024.8
20240614021037 19 177 0.0 0.0 0.00 0.00 0.00 52 1024.9
20240614014035 20 164 0.0 0.0 0.00 0.00 0.00 56 1024.6
20240614011034 20 185 1.6 1.6 0.00 0.00 0.00 56 1024.6
20240614004034 20 178 0.0 0.0 0.00 0.00 0.00 50 1024.7
20240614001033 20 181 0.0 0.0 0.00 0.00 0.00 48 1024.5
20240613234031 20 174 0.0 0.0 0.00 0.00 0.00 40 1024.8
20240613231031 20 177 0.0 0.0 0.00 0.00 0.00 43 1025.0
20240613224031 20 218 1.6 1.6 0.00 0.00 0.00 43 1024.7
20240613221030 20 176 1.6 1.6 0.00 0.00 0.00 47 1025.0
20240613214028 20 175 0.0 0.0 0.00 0.00 0.00 50 1025.0
20240613211027 19 192 1.6 1.6 0.00 0.00 0.00 52 1025.6
20240613204027 19 195 1.6 1.6 0.00 0.00 0.00 52 1025.7
20240613201028 20 173 0.0 0.0 0.00 0.00 0.00 54 1025.8
20240613194026 18 215 1.6 1.6 0.00 0.00 0.00 56 1026.1
20240613191025 19 275 4.8 4.8 0.00 0.00 0.00 55 1026.3
20240613184024 19 178 3.2 3.2 0.00 0.00 0.00 57 1026.3
20240613181023 18 189 1.6 1.6 0.00 0.00 0.00 60 1026.5
20240613174022 17 165 0.0 0.0 0.00 0.00 0.00 64 1026.8
20240613171023 15 178 1.6 1.6 0.00 0.00 0.00 67 1027.0
20240613164022 16 189 1.6 1.6 0.00 0.00 0.00 65 1027.0
20240613161021 15 173 0.0 0.0 0.00 0.00 0.00 70 1027.3
20240613154021 15 168 1.6 1.6 0.00 0.00 0.00 66 1027.2
20240613151019 14 177 0.0 1.6 0.00 0.00 0.00 70 1027.5
20240613144018 12 171 0.0 0.0 0.00 0.00 0.00 74 1027.4
20240613141018 11 169 0.0 0.0 0.00 0.00 0.00 81 1027.3
20240613134017 9 165 0.0 0.0 0.00 0.00 0.00 83 1027.4